TimeCDT,TemperatureF,Dew PointF,Humidity,Sea Level PressureIn,VisibilityMPH,Wind Direction,Wind SpeedMPH,Gust SpeedMPH,PrecipitationIn,Events,Conditions,WindDirDegrees,DateUTC
12:34 AM,66.2,62.6,88,30.00,10.0,Calm,Calm,-,N/A,,Overcast,0,2013-05-18 05:34:00
12:54 AM,66.0,63.0,90,29.99,10.0,ENE,3.5,-,N/A,,Overcast,60,2013-05-18 05:54:00
1:54 AM,66.9,62.1,84,29.98,10.0,East,3.5,-,N/A,,Overcast,80,2013-05-18 06:54:00
2:54 AM,66.9,62.1,84,29.98,10.0,Calm,Calm,-,N/A,,Overcast,0,2013-05-18 07:54:00
3:47 AM,66.2,62.6,88,29.99,10.0,Calm,Calm,-,N/A,,Overcast,0,2013-05-18 08:47:00
3:54 AM,66.9,62.1,84,29.98,10.0,Calm,Calm,-,N/A,,Overcast,0,2013-05-18 08:54:00
4:09 AM,66.2,62.6,88,29.99,10.0,East,3.5,-,N/A,,Overcast,80,2013-05-18 09:09:00
4:25 AM,66.2,62.6,88,29.99,10.0,East,3.5,-,N/A,,Overcast,100,2013-05-18 09:25:00
4:54 AM,66.9,63.0,87,29.98,9.0,Variable,3.5,-,N/A,,Overcast,0,2013-05-18 09:54:00
5:54 AM,66.0,63.0,90,29.99,5.0,East,3.5,-,N/A,,Overcast,80,2013-05-18 10:54:00
6:30 AM,66.2,62.6,88,30.01,5.0,ENE,4.6,-,N/A,,Overcast,70,2013-05-18 11:30:00
6:44 AM,66.2,62.6,88,30.01,2.5,ENE,4.6,-,N/A,,Overcast,60,2013-05-18 11:44:00
6:50 AM,66.2,62.6,88,30.01,1.8,ENE,3.5,-,N/A,,Overcast,60,2013-05-18 11:50:00
6:54 AM,66.0,63.0,90,30.00,1.8,ENE,3.5,-,N/A,,Overcast,60,2013-05-18 11:54:00
7:23 AM,66.2,62.6,88,30.01,2.0,ENE,4.6,-,N/A,,Overcast,70,2013-05-18 12:23:00
7:54 AM,66.0,63.0,90,30.01,2.0,ENE,4.6,-,N/A,,Overcast,70,2013-05-18 12:54:00
8:49 AM,66.2,62.6,88,30.02,4.0,East,3.5,-,N/A,,Overcast,100,2013-05-18 13:49:00
8:54 AM,66.9,63.0,87,30.01,4.0,ESE,3.5,-,N/A,,Overcast,120,2013-05-18 13:54:00
9:54 AM,68.0,64.0,87,30.01,6.0,ENE,4.6,-,N/A,,Overcast,70,2013-05-18 14:54:00
10:54 AM,70.0,64.0,81,30.02,6.0,NE,3.5,-,N/A,,Overcast,50,2013-05-18 15:54:00
11:43 AM,71.6,62.6,73,30.02,9.0,Calm,Calm,-,N/A,,Overcast,0,2013-05-18 16:43:00
11:54 AM,71.1,64.0,78,30.01,9.0,ENE,3.5,-,N/A,,Overcast,60,2013-05-18 16:54:00
12:25 PM,71.6,64.4,78,30.01,8.0,Calm,Calm,-,N/A,,Overcast,0,2013-05-18 17:25:00
12:37 PM,73.4,62.6,69,30.01,8.0,Calm,Calm,-,N/A,,Overcast,0,2013-05-18 17:37:00
12:54 PM,73.0,64.0,73,29.99,9.0,Calm,Calm,-,N/A,,Overcast,0,2013-05-18 17:54:00
1:54 PM,73.4,62.6,69,29.99,10.0,SE,3.5,-,N/A,,Overcast,130,2013-05-18 18:54:00
2:54 PM,75.0,63.0,66,29.98,10.0,Calm,Calm,-,N/A,,Overcast,0,2013-05-18 19:54:00
3:54 PM,77.0,64.0,64,29.96,10.0,Calm,Calm,-,N/A,,Overcast,0,2013-05-18 20:54:00
4:54 PM,75.9,63.0,64,29.96,10.0,South,3.5,-,N/A,,Overcast,190,2013-05-18 21:54:00
5:54 PM,75.9,64.0,67,29.95,10.0,West,3.5,-,N/A,,Scattered Clouds,260,2013-05-18 22:54:00
6:54 PM,75.9,64.0,67,29.95,9.0,NNW,3.5,-,N/A,,Clear,330,2013-05-18 23:54:00
7:54 PM,72.0,64.0,76,29.96,8.0,Calm,Calm,-,N/A,,Clear,0,2013-05-19 00:54:00
8:54 PM,68.0,63.0,84,29.96,8.0,Calm,Calm,-,N/A,,Clear,0,2013-05-19 01:54:00
9:54 PM,64.9,62.1,90,29.96,5.0,Calm,Calm,-,N/A,,Clear,0,2013-05-19 02:54:00
10:54 PM,66.0,63.0,90,29.96,5.0,Calm,Calm,-,N/A,,Clear,0,2013-05-19 03:54:00
11:54 PM,64.9,62.1,90,29.95,4.0,Calm,Calm,-,N/A,,Clear,0,2013-05-19 04:54:00